contact:dominique.lefevre@mio.osupytheas.fr, maurice.libes@osupytheas.fr, didier.mallarino@osupytheas.fr
Project:EMSO http://www.emso-fr.org/EMSO-France
Depth: 2436.0 m
Title:EMSO Ligure Ouest : Data MII capteur CSTAR
DateTime,Latitude,Longitude,Instrument_Serial,Reference_Counts,Signal_Counts,Corrected_Signal_raw_counts,Calculated_Beam_c_inverse_meters,Internal_thermistor_counts
DateTime,Latitude,Longitude,Instrument_Serial,Reference_Counts,Signal_Counts,Corrected_Signal_raw_counts,Calculated_Beam_c_inverse_meters,Internal_thermistor_counts
2020-07-12T00:01:56,42.805,6.029,CST-1368DR,6088,8526,15123,0.128,551
2020-07-12T00:04:58,42.805,6.029,CST-1368DR,6088,8526,15122,0.129,551
2020-07-12T00:07:59,42.805,6.029,CST-1368DR,6088,8526,15122,0.129,551
2020-07-12T00:11:01,42.805,6.029,CST-1368DR,6088,8526,15122,0.129,551
2020-07-12T00:14:03,42.805,6.029,CST-1368DR,6088,8526,15122,0.129,551
2020-07-12T00:17:05,42.805,6.029,CST-1368DR,6088,8526,15123,0.128,551
2020-07-12T00:20:06,42.805,6.029,CST-1368DR,6088,8526,15122,0.129,551
2020-07-12T00:23:08,42.805,6.029,CST-1368DR,6087,8526,15124,0.128,551
2020-07-12T00:26:10,42.805,6.029,CST-1368DR,6087,8526,15124,0.128,551
2020-07-12T00:29:12,42.805,6.029,CST-1368DR,6088,8526,15123,0.128,551
2020-07-12T00:32:13,42.805,6.029,CST-1368DR,6087,8526,15125,0.128,551
2020-07-12T00:35:15,42.805,6.029,CST-1368DR,6087,8526,15124,0.128,551
2020-07-12T00:38:17,42.805,6.029,CST-1368DR,6087,8526,15124,0.128,551
2020-07-12T00:41:18,42.805,6.029,CST-1368DR,6087,8527,15126,0.128,551
2020-07-12T00:44:20,42.805,6.029,CST-1368DR,6087,8526,15125,0.128,551
2020-07-12T00:47:22,42.805,6.029,CST-1368DR,6087,8526,15124,0.128,551
2020-07-12T00:50:24,42.805,6.029,CST-1368DR,6087,8525,15123,0.128,551
2020-07-12T00:53:25,42.805,6.029,CST-1368DR,6087,8526,15125,0.128,551
2020-07-12T00:56:27,42.805,6.029,CST-1368DR,6087,8526,15124,0.128,551
2020-07-12T00:59:29,42.805,6.029,CST-1368DR,6087,8523,15120,0.129,551
2020-07-12T01:02:30,42.805,6.029,CST-1368DR,6087,8526,15124,0.128,551
2020-07-12T01:05:32,42.805,6.029,CST-1368DR,6087,8526,15125,0.128,551
2020-07-12T01:08:34,42.805,6.029,CST-1368DR,6087,8526,15125,0.128,551
2020-07-12T01:11:36,42.805,6.029,CST-1368DR,6087,8526,15124,0.128,551
2020-07-12T01:14:37,42.805,6.029,CST-1368DR,6087,8526,15125,0.128,551
2020-07-12T01:17:39,42.805,6.029,CST-1368DR,6087,8526,15125,0.128,551
2020-07-12T01:20:41,42.805,6.029,CST-1368DR,6087,8525,15123,0.128,551
2020-07-12T01:23:42,42.805,6.029,CST-1368DR,6087,8526,15125,0.128,551
2020-07-12T01:26:44,42.805,6.029,CST-1368DR,6087,8526,15125,0.128,551
2020-07-12T01:29:46,42.805,6.029,CST-1368DR,6087,8526,15124,0.128,551
2020-07-12T01:32:48,42.805,6.029,CST-1368DR,6087,8526,15124,0.128,551
2020-07-12T01:35:49,42.805,6.029,CST-1368DR,6087,8526,15125,0.128,551
2020-07-12T01:38:51,42.805,6.029,CST-1368DR,6087,8525,15123,0.128,551
2020-07-12T01:41:53,42.805,6.029,CST-1368DR,6087,8526,15124,0.128,551
2020-07-12T01:44:54,42.805,6.029,CST-1368DR,6087,8525,15123,0.128,551
2020-07-12T01:47:56,42.805,6.029,CST-1368DR,6087,8526,15125,0.128,551
2020-07-12T01:50:58,42.805,6.029,CST-1368DR,6087,8525,15123,0.128,551
2020-07-12T01:54:00,42.805,6.029,CST-1368DR,6087,8526,15125,0.128,551
2020-07-12T01:57:01,42.805,6.029,CST-1368DR,6087,8526,15124,0.128,551
2020-07-12T02:00:03,42.805,6.029,CST-1368DR,6087,8525,15123,0.128,551
2020-07-12T02:03:05,42.805,6.029,CST-1368DR,6087,8526,15124,0.128,551
2020-07-12T02:06:06,42.805,6.029,CST-1368DR,6087,8523,15119,0.129,551
2020-07-12T02:09:08,42.805,6.029,CST-1368DR,6087,8526,15124,0.128,551
2020-07-12T02:12:10,42.805,6.029,CST-1368DR,6087,8526,15124,0.128,551
2020-07-12T02:15:11,42.805,6.029,CST-1368DR,6087,8526,15124,0.128,551
2020-07-12T02:18:13,42.805,6.029,CST-1368DR,6087,8525,15123,0.128,551
2020-07-12T02:21:15,42.805,6.029,CST-1368DR,6087,8526,15125,0.128,551
2020-07-12T02:24:16,42.805,6.029,CST-1368DR,6087,8525,15123,0.128,551
2020-07-12T02:27:18,42.805,6.029,CST-1368DR,6087,8526,15124,0.128,551
2020-07-12T02:30:20,42.805,6.029,CST-1368DR,6087,8526,15124,0.128,550
2020-07-12T02:33:21,42.805,6.029,CST-1368DR,6087,8526,15125,0.128,551
2020-07-12T02:36:23,42.805,6.029,CST-1368DR,6087,8525,15123,0.128,551
2020-07-12T02:39:25,42.805,6.029,CST-1368DR,6087,8524,15121,0.129,551
2020-07-12T02:42:27,42.805,6.029,CST-1368DR,6087,8526,15125,0.128,551
2020-07-12T02:45:28,42.805,6.029,CST-1368DR,6087,8524,15121,0.129,551
2020-07-12T02:48:30,42.805,6.029,CST-1368DR,6087,8524,15121,0.129,551
2020-07-12T02:51:32,42.805,6.029,CST-1368DR,6087,8526,15124,0.128,551
2020-07-12T02:54:33,42.805,6.029,CST-1368DR,6087,8525,15123,0.128,551
2020-07-12T02:57:35,42.805,6.029,CST-1368DR,6087,8525,15123,0.128,551
2020-07-12T03:00:37,42.805,6.029,CST-1368DR,6087,8525,15123,0.128,551
2020-07-12T03:03:38,42.805,6.029,CST-1368DR,6087,8526,15124,0.128,551
2020-07-12T03:06:40,42.805,6.029,CST-1368DR,6087,8525,15123,0.128,551
2020-07-12T03:09:42,42.805,6.029,CST-1368DR,6087,8525,15123,0.128,551
2020-07-12T03:12:44,42.805,6.029,CST-1368DR,6087,8524,15120,0.129,551
2020-07-12T03:15:45,42.805,6.029,CST-1368DR,6087,8525,15123,0.128,551
2020-07-12T03:18:47,42.805,6.029,CST-1368DR,6087,8524,15121,0.129,551
2020-07-12T03:21:49,42.805,6.029,CST-1368DR,6087,8525,15123,0.128,551
2020-07-12T03:24:50,42.805,6.029,CST-1368DR,6087,8525,15123,0.128,551
2020-07-12T03:27:52,42.805,6.029,CST-1368DR,6087,8525,15123,0.128,551
2020-07-12T03:30:54,42.805,6.029,CST-1368DR,6087,8525,15123,0.128,551
2020-07-12T03:33:55,42.805,6.029,CST-1368DR,6087,8525,15123,0.128,551
2020-07-12T03:36:57,42.805,6.029,CST-1368DR,6087,8525,15123,0.128,551
2020-07-12T03:39:59,42.805,6.029,CST-1368DR,6087,8525,15123,0.128,551
2020-07-12T03:43:01,42.805,6.029,CST-1368DR,6087,8525,15123,0.128,551
2020-07-12T03:46:02,42.805,6.029,CST-1368DR,6087,8525,15123,0.128,551
2020-07-12T03:49:04,42.805,6.029,CST-1368DR,6087,8525,15123,0.128,551
2020-07-12T03:52:06,42.805,6.029,CST-1368DR,6087,8525,15123,0.128,551
2020-07-12T03:55:08,42.805,6.029,CST-1368DR,6087,8525,15123,0.128,551
2020-07-12T03:58:09,42.805,6.029,CST-1368DR,6087,8526,15124,0.128,551
2020-07-12T04:01:11,42.805,6.029,CST-1368DR,6087,8525,15123,0.128,551
2020-07-12T04:04:13,42.805,6.029,CST-1368DR,6087,8526,15124,0.128,551
2020-07-12T04:07:15,42.805,6.029,CST-1368DR,6087,8525,15123,0.128,551
2020-07-12T04:10:16,42.805,6.029,CST-1368DR,6087,8525,15123,0.128,551
2020-07-12T04:13:18,42.805,6.029,CST-1368DR,6087,8524,15122,0.129,551
2020-07-12T04:16:20,42.805,6.029,CST-1368DR,6087,8525,15123,0.128,551
2020-07-12T04:19:21,42.805,6.029,CST-1368DR,6087,8525,15123,0.128,551
2020-07-12T04:22:23,42.805,6.029,CST-1368DR,6087,8525,15123,0.128,551
2020-07-12T04:25:25,42.805,6.029,CST-1368DR,6087,8525,15123,0.128,551
2020-07-12T04:28:27,42.805,6.029,CST-1368DR,6087,8525,15123,0.128,550
2020-07-12T04:31:29,42.805,6.029,CST-1368DR,6087,8524,15121,0.129,551
2020-07-12T04:34:30,42.805,6.029,CST-1368DR,6087,8524,15121,0.129,551
2020-07-12T04:37:32,42.805,6.029,CST-1368DR,6087,8524,15121,0.129,551
2020-07-12T04:40:34,42.805,6.029,CST-1368DR,6087,8524,15121,0.129,551
2020-07-12T04:43:35,42.805,6.029,CST-1368DR,6087,8525,15123,0.128,551
2020-07-12T04:46:37,42.805,6.029,CST-1368DR,6087,8525,15123,0.128,551
2020-07-12T04:49:39,42.805,6.029,CST-1368DR,6087,8524,15121,0.129,551
2020-07-12T04:52:41,42.805,6.029,CST-1368DR,6087,8523,15120,0.129,551
2020-07-12T04:55:42,42.805,6.029,CST-1368DR,6087,8524,15121,0.129,551
2020-07-12T04:58:44,42.805,6.029,CST-1368DR,6087,8525,15123,0.128,551
2020-07-12T05:01:46,42.805,6.029,CST-1368DR,6087,8524,15120,0.129,551
2020-07-12T05:04:47,42.805,6.029,CST-1368DR,6087,8525,15123,0.128,551
2020-07-12T05:07:49,42.805,6.029,CST-1368DR,6087,8525,15123,0.128,551
2020-07-12T05:10:51,42.805,6.029,CST-1368DR,6087,8525,15123,0.128,551
2020-07-12T05:13:52,42.805,6.029,CST-1368DR,6087,8525,15123,0.128,551
2020-07-12T05:16:54,42.805,6.029,CST-1368DR,6087,8524,15121,0.129,551
2020-07-12T05:19:56,42.805,6.029,CST-1368DR,6087,8525,15123,0.128,551
2020-07-12T05:22:58,42.805,6.029,CST-1368DR,6087,8525,15123,0.128,551
2020-07-12T05:25:59,42.805,6.029,CST-1368DR,6087,8525,15123,0.128,551
2020-07-12T05:29:01,42.805,6.029,CST-1368DR,6087,8524,15122,0.129,551
2020-07-12T05:32:03,42.805,6.029,CST-1368DR,6087,8524,15121,0.129,551
2020-07-12T05:35:04,42.805,6.029,CST-1368DR,6087,8524,15121,0.129,551
2020-07-12T05:38:06,42.805,6.029,CST-1368DR,6087,8524,15121,0.129,551
2020-07-12T05:41:08,42.805,6.029,CST-1368DR,6087,8524,15121,0.129,551
2020-07-12T05:44:09,42.805,6.029,CST-1368DR,6087,8524,15122,0.129,551
2020-07-12T05:47:11,42.805,6.029,CST-1368DR,6087,8523,15119,0.129,551
2020-07-12T05:50:13,42.805,6.029,CST-1368DR,6087,8525,15123,0.128,551
2020-07-12T05:53:14,42.805,6.029,CST-1368DR,6087,8524,15121,0.129,551
2020-07-12T05:56:16,42.805,6.029,CST-1368DR,6087,8524,15120,0.129,551
2020-07-12T05:59:18,42.805,6.029,CST-1368DR,6087,8524,15120,0.129,551
2020-07-12T06:02:20,42.805,6.029,CST-1368DR,6087,8524,15121,0.129,551
2020-07-12T06:05:21,42.805,6.029,CST-1368DR,6087,8524,15121,0.129,550
2020-07-12T06:08:23,42.805,6.029,CST-1368DR,6087,8524,15122,0.129,551
2020-07-12T06:11:25,42.805,6.029,CST-1368DR,6087,8524,15121,0.129,551
2020-07-12T06:14:26,42.805,6.029,CST-1368DR,6087,8524,15122,0.129,551
2020-07-12T06:17:28,42.805,6.029,CST-1368DR,6087,8524,15120,0.129,551
2020-07-12T06:20:30,42.805,6.029,CST-1368DR,6087,8524,15121,0.129,551
2020-07-12T06:23:31,42.805,6.029,CST-1368DR,6087,8524,15120,0.129,550
2020-07-12T06:26:33,42.805,6.029,CST-1368DR,6087,8524,15121,0.129,551
2020-07-12T06:29:35,42.805,6.029,CST-1368DR,6087,8524,15122,0.129,551
2020-07-12T06:32:36,42.805,6.029,CST-1368DR,6087,8524,15122,0.129,551
2020-07-12T06:35:38,42.805,6.029,CST-1368DR,6087,8524,15121,0.129,551
2020-07-12T06:38:40,42.805,6.029,CST-1368DR,6087,8524,15121,0.129,550
2020-07-12T06:41:41,42.805,6.029,CST-1368DR,6087,8525,15123,0.128,551
2020-07-12T06:44:43,42.805,6.029,CST-1368DR,6087,8524,15122,0.129,551
2020-07-12T06:47:45,42.805,6.029,CST-1368DR,6087,8523,15120,0.129,551
2020-07-12T06:50:47,42.805,6.029,CST-1368DR,6087,8524,15120,0.129,551
2020-07-12T06:53:48,42.805,6.029,CST-1368DR,6087,8524,15121,0.129,551
2020-07-12T06:56:50,42.805,6.029,CST-1368DR,6087,8524,15122,0.129,551
2020-07-12T06:59:52,42.805,6.029,CST-1368DR,6087,8524,15122,0.129,551
2020-07-12T07:02:53,42.805,6.029,CST-1368DR,6087,8525,15123,0.128,551
2020-07-12T07:05:55,42.805,6.029,CST-1368DR,6087,8524,15122,0.129,551
2020-07-12T07:08:57,42.805,6.029,CST-1368DR,6087,8525,15123,0.128,551
2020-07-12T07:11:58,42.805,6.029,CST-1368DR,6087,8525,15123,0.128,551
2020-07-12T07:15:00,42.805,6.029,CST-1368DR,6087,8524,15122,0.129,551
2020-07-12T07:18:02,42.805,6.029,CST-1368DR,6087,8524,15122,0.129,551
2020-07-12T07:21:04,42.805,6.029,CST-1368DR,6086,8524,15124,0.128,550
2020-07-12T07:24:05,42.805,6.029,CST-1368DR,6087,8524,15121,0.129,551
2020-07-12T07:27:07,42.805,6.029,CST-1368DR,6087,8525,15123,0.128,551
2020-07-12T07:30:09,42.805,6.029,CST-1368DR,6087,8525,15123,0.128,551
2020-07-12T07:33:10,42.805,6.029,CST-1368DR,6086,8524,15123,0.128,551
2020-07-12T07:36:12,42.805,6.029,CST-1368DR,6087,8524,15121,0.129,551
2020-07-12T07:39:14,42.805,6.029,CST-1368DR,6086,8524,15124,0.128,551
2020-07-12T07:42:15,42.805,6.029,CST-1368DR,6087,8525,15123,0.128,551
2020-07-12T07:45:17,42.805,6.029,CST-1368DR,6086,8524,15124,0.128,551
2020-07-12T07:48:19,42.805,6.029,CST-1368DR,6086,8525,15126,0.128,551
2020-07-12T07:51:21,42.805,6.029,CST-1368DR,6086,8524,15124,0.128,551
2020-07-12T07:54:22,42.805,6.029,CST-1368DR,6086,8525,15126,0.128,551
2020-07-12T07:57:24,42.805,6.029,CST-1368DR,6086,8524,15124,0.128,551
2020-07-12T08:00:26,42.805,6.029,CST-1368DR,6086,8524,15124,0.128,551
2020-07-12T08:03:27,42.805,6.029,CST-1368DR,6086,8524,15123,0.128,551
2020-07-12T08:06:29,42.805,6.029,CST-1368DR,6086,8524,15123,0.128,551
2020-07-12T08:09:31,42.805,6.029,CST-1368DR,6086,8525,15125,0.128,551
2020-07-12T08:12:32,42.805,6.029,CST-1368DR,6086,8524,15123,0.128,551
2020-07-12T08:15:34,42.805,6.029,CST-1368DR,6086,8524,15124,0.128,551
2020-07-12T08:18:36,42.805,6.029,CST-1368DR,6086,8524,15123,0.128,551
2020-07-12T08:21:37,42.805,6.029,CST-1368DR,6086,8524,15124,0.128,551
2020-07-12T08:24:39,42.805,6.029,CST-1368DR,6086,8523,15122,0.129,551
2020-07-12T08:27:41,42.805,6.029,CST-1368DR,6086,8524,15123,0.128,551
2020-07-12T08:30:42,42.805,6.029,CST-1368DR,6086,8523,15122,0.129,551
2020-07-12T08:33:44,42.805,6.029,CST-1368DR,6086,8524,15124,0.128,550
2020-07-12T08:36:46,42.805,6.029,CST-1368DR,6086,8523,15122,0.129,551
2020-07-12T08:39:48,42.805,6.029,CST-1368DR,6086,8524,15123,0.128,551
2020-07-12T08:42:49,42.805,6.029,CST-1368DR,6086,8524,15124,0.128,551
2020-07-12T08:45:51,42.805,6.029,CST-1368DR,6086,8524,15124,0.128,551
2020-07-12T08:48:53,42.805,6.029,CST-1368DR,6086,8524,15124,0.128,551
2020-07-12T08:51:54,42.805,6.029,CST-1368DR,6086,8524,15123,0.128,551
2020-07-12T08:54:56,42.805,6.029,CST-1368DR,6086,8523,15121,0.129,551
2020-07-12T08:57:58,42.805,6.029,CST-1368DR,6086,8523,15122,0.129,551
2020-07-12T09:01:00,42.805,6.029,CST-1368DR,6086,8524,15123,0.128,551
2020-07-12T09:04:01,42.805,6.029,CST-1368DR,6086,8524,15124,0.128,551
2020-07-12T09:07:03,42.805,6.029,CST-1368DR,6086,8524,15123,0.128,551
2020-07-12T09:10:05,42.805,6.029,CST-1368DR,6086,8524,15124,0.128,551
2020-07-12T09:13:06,42.805,6.029,CST-1368DR,6086,8524,15124,0.128,551
2020-07-12T09:16:08,42.805,6.029,CST-1368DR,6086,8523,15121,0.129,551
2020-07-12T09:19:10,42.805,6.029,CST-1368DR,6086,8524,15123,0.128,551
2020-07-12T09:22:11,42.805,6.029,CST-1368DR,6086,8524,15123,0.128,551
2020-07-12T09:25:13,42.805,6.029,CST-1368DR,6086,8523,15122,0.129,551
2020-07-12T09:28:15,42.805,6.029,CST-1368DR,6086,8523,15121,0.129,551
2020-07-12T09:31:16,42.805,6.029,CST-1368DR,6086,8524,15124,0.128,551
2020-07-12T09:34:18,42.805,6.029,CST-1368DR,6086,8523,15122,0.129,551
2020-07-12T09:37:20,42.805,6.029,CST-1368DR,6086,8524,15124,0.128,551
2020-07-12T09:40:22,42.805,6.029,CST-1368DR,6086,8523,15122,0.129,551
2020-07-12T09:43:24,42.805,6.029,CST-1368DR,6086,8523,15122,0.129,551
2020-07-12T09:46:25,42.805,6.029,CST-1368DR,6086,8524,15123,0.128,551
2020-07-12T09:49:27,42.805,6.029,CST-1368DR,6086,8523,15122,0.129,551
2020-07-12T09:52:29,42.805,6.029,CST-1368DR,6086,8523,15122,0.129,551
2020-07-12T09:55:30,42.805,6.029,CST-1368DR,6086,8524,15123,0.128,551
2020-07-12T09:58:32,42.805,6.029,CST-1368DR,6086,8524,15123,0.128,551
2020-07-12T10:01:34,42.805,6.029,CST-1368DR,6086,8523,15121,0.129,551
2020-07-12T10:04:35,42.805,6.029,CST-1368DR,6086,8524,15123,0.128,551
2020-07-12T10:07:37,42.805,6.029,CST-1368DR,6086,8523,15122,0.129,551
2020-07-12T10:10:39,42.805,6.029,CST-1368DR,6086,8523,15121,0.129,551
2020-07-12T10:13:41,42.805,6.029,CST-1368DR,6086,8523,15121,0.129,551
2020-07-12T10:16:43,42.805,6.029,CST-1368DR,6086,8524,15123,0.128,551
2020-07-12T10:19:44,42.805,6.029,CST-1368DR,6086,8523,15122,0.129,551
2020-07-12T10:22:46,42.805,6.029,CST-1368DR,6086,8523,15121,0.129,551
2020-07-12T10:25:48,42.805,6.029,CST-1368DR,6086,8523,15122,0.129,551
2020-07-12T10:28:49,42.805,6.029,CST-1368DR,6086,8523,15121,0.129,551
2020-07-12T10:31:51,42.805,6.029,CST-1368DR,6086,8524,15123,0.128,551
2020-07-12T10:34:53,42.805,6.029,CST-1368DR,6086,8524,15123,0.128,551
2020-07-12T10:37:55,42.805,6.029,CST-1368DR,6086,8524,15124,0.128,551
2020-07-12T10:40:56,42.805,6.029,CST-1368DR,6086,8524,15123,0.128,551
2020-07-12T10:43:58,42.805,6.029,CST-1368DR,6086,8524,15123,0.128,551
2020-07-12T10:47:00,42.805,6.029,CST-1368DR,6086,8523,15122,0.129,551
2020-07-12T10:50:01,42.805,6.029,CST-1368DR,6086,8523,15122,0.129,551
2020-07-12T10:53:03,42.805,6.029,CST-1368DR,6086,8524,15123,0.128,551
2020-07-12T10:56:05,42.805,6.029,CST-1368DR,6086,8523,15121,0.129,551
2020-07-12T10:59:07,42.805,6.029,CST-1368DR,6086,8523,15122,0.129,551
2020-07-12T11:02:08,42.805,6.029,CST-1368DR,6086,8524,15124,0.128,551
2020-07-12T11:05:10,42.805,6.029,CST-1368DR,6086,8524,15123,0.128,551
2020-07-12T11:08:12,42.805,6.029,CST-1368DR,6086,8523,15122,0.129,551
2020-07-12T11:11:13,42.805,6.029,CST-1368DR,6086,8524,15124,0.128,551
2020-07-12T11:14:15,42.805,6.029,CST-1368DR,6086,8523,15122,0.129,550
2020-07-12T11:17:17,42.805,6.029,CST-1368DR,6086,8524,15123,0.128,551
2020-07-12T11:20:18,42.805,6.029,CST-1368DR,6086,8523,15122,0.129,551
2020-07-12T11:23:20,42.805,6.029,CST-1368DR,6086,8524,15123,0.128,551
2020-07-12T11:26:22,42.805,6.029,CST-1368DR,6086,8524,15123,0.128,551
2020-07-12T11:29:24,42.805,6.029,CST-1368DR,6086,8524,15124,0.128,551
2020-07-12T11:32:25,42.805,6.029,CST-1368DR,6086,8523,15122,0.129,550
2020-07-12T11:35:27,42.805,6.029,CST-1368DR,6086,8524,15124,0.128,551
2020-07-12T11:38:29,42.805,6.029,CST-1368DR,6086,8523,15122,0.129,551
2020-07-12T11:41:30,42.805,6.029,CST-1368DR,6086,8523,15121,0.129,551
2020-07-12T11:44:32,42.805,6.029,CST-1368DR,6086,8522,15120,0.129,551
2020-07-12T11:47:34,42.805,6.029,CST-1368DR,6086,8523,15121,0.129,551
2020-07-12T11:50:35,42.805,6.029,CST-1368DR,6086,8523,15121,0.129,551
2020-07-12T11:53:37,42.805,6.029,CST-1368DR,6086,8522,15120,0.129,551
2020-07-12T11:56:39,42.805,6.029,CST-1368DR,6086,8522,15120,0.129,551
2020-07-12T11:59:41,42.805,6.029,CST-1368DR,6086,8523,15121,0.129,551
2020-07-12T12:02:42,42.805,6.029,CST-1368DR,6086,8523,15121,0.129,551
2020-07-12T12:05:44,42.805,6.029,CST-1368DR,6086,8524,15123,0.128,551
2020-07-12T12:08:46,42.805,6.029,CST-1368DR,6086,8523,15122,0.129,551
2020-07-12T12:11:47,42.805,6.029,CST-1368DR,6086,8523,15121,0.129,551
2020-07-12T12:14:49,42.805,6.029,CST-1368DR,6086,8524,15123,0.128,551
2020-07-12T12:17:51,42.805,6.029,CST-1368DR,6086,8523,15122,0.129,550
2020-07-12T12:20:53,42.805,6.029,CST-1368DR,6086,8524,15123,0.128,551
2020-07-12T12:23:54,42.805,6.029,CST-1368DR,6086,8524,15123,0.128,551
2020-07-12T12:26:56,42.805,6.029,CST-1368DR,6086,8524,15123,0.128,551
2020-07-12T12:29:58,42.805,6.029,CST-1368DR,6086,8524,15124,0.128,551
2020-07-12T12:32:59,42.805,6.029,CST-1368DR,6086,8519,15115,0.130,551
2020-07-12T12:36:01,42.805,6.029,CST-1368DR,6086,8524,15124,0.128,551
2020-07-12T12:39:03,42.805,6.029,CST-1368DR,6086,8523,15122,0.129,551
2020-07-12T12:42:05,42.805,6.029,CST-1368DR,6086,8523,15122,0.129,551
2020-07-12T12:45:06,42.805,6.029,CST-1368DR,6086,8522,15120,0.129,551
2020-07-12T12:48:08,42.805,6.029,CST-1368DR,6086,8523,15122,0.129,551
2020-07-12T12:51:10,42.805,6.029,CST-1368DR,6086,8523,15122,0.129,551
2020-07-12T12:54:11,42.805,6.029,CST-1368DR,6086,8523,15122,0.129,551
2020-07-12T12:57:13,42.805,6.029,CST-1368DR,6086,8523,15121,0.129,551
2020-07-12T13:00:15,42.805,6.029,CST-1368DR,6086,8522,15119,0.129,551
2020-07-12T13:03:16,42.805,6.029,CST-1368DR,6086,8522,15120,0.129,551
2020-07-12T13:06:18,42.805,6.029,CST-1368DR,6086,8522,15120,0.129,551
2020-07-12T13:09:20,42.805,6.029,CST-1368DR,6086,8523,15121,0.129,551
2020-07-12T13:12:21,42.805,6.029,CST-1368DR,6086,8523,15122,0.129,551
2020-07-12T13:15:23,42.805,6.029,CST-1368DR,6086,8523,15122,0.129,551
2020-07-12T13:18:25,42.805,6.029,CST-1368DR,6086,8523,15121,0.129,551
2020-07-12T13:21:26,42.805,6.029,CST-1368DR,6085,8521,15121,0.129,551
2020-07-12T13:24:28,42.805,6.029,CST-1368DR,6086,8523,15121,0.129,551
2020-07-12T13:27:30,42.805,6.029,CST-1368DR,6086,8523,15121,0.129,551
2020-07-12T13:30:32,42.805,6.029,CST-1368DR,6086,8523,15122,0.129,551
2020-07-12T13:33:33,42.805,6.029,CST-1368DR,6086,8522,15120,0.129,551
2020-07-12T13:36:35,42.805,6.029,CST-1368DR,6086,8524,15123,0.128,551
2020-07-12T13:39:37,42.805,6.029,CST-1368DR,6086,8523,15122,0.129,551
2020-07-12T13:42:38,42.805,6.029,CST-1368DR,6085,8523,15123,0.128,551
2020-07-12T13:45:40,42.805,6.029,CST-1368DR,6085,8523,15123,0.128,551
2020-07-12T13:48:42,42.805,6.029,CST-1368DR,6086,8522,15119,0.129,551
2020-07-12T13:51:43,42.805,6.029,CST-1368DR,6085,8523,15124,0.128,551
2020-07-12T13:54:45,42.805,6.029,CST-1368DR,6086,8523,15122,0.129,551
2020-07-12T13:57:47,42.805,6.029,CST-1368DR,6085,8523,15124,0.128,551
2020-07-12T14:00:49,42.805,6.029,CST-1368DR,6085,8523,15124,0.128,551
2020-07-12T14:03:50,42.805,6.029,CST-1368DR,6085,8523,15124,0.128,551
2020-07-12T14:06:52,42.805,6.029,CST-1368DR,6085,8523,15123,0.128,551
2020-07-12T14:09:54,42.805,6.029,CST-1368DR,6085,8523,15124,0.128,551
2020-07-12T14:12:55,42.805,6.029,CST-1368DR,6085,8523,15123,0.128,551
2020-07-12T14:15:57,42.805,6.029,CST-1368DR,6085,8522,15122,0.129,551
2020-07-12T14:18:59,42.805,6.029,CST-1368DR,6085,8522,15123,0.128,551
2020-07-12T14:22:01,42.805,6.029,CST-1368DR,6085,8522,15122,0.129,551
2020-07-12T14:25:02,42.805,6.029,CST-1368DR,6085,8522,15122,0.129,551
2020-07-12T14:28:04,42.805,6.029,CST-1368DR,6085,8517,15113,0.131,551
2020-07-12T14:31:06,42.805,6.029,CST-1368DR,6085,8519,15118,0.130,551
2020-07-12T14:34:08,42.805,6.029,CST-1368DR,6085,8522,15123,0.128,551
2020-07-12T14:37:09,42.805,6.029,CST-1368DR,6085,8523,15124,0.128,551
2020-07-12T14:40:11,42.805,6.029,CST-1368DR,6085,8522,15122,0.129,551
2020-07-12T14:43:13,42.805,6.029,CST-1368DR,6085,8523,15125,0.128,551
2020-07-12T14:46:14,42.805,6.029,CST-1368DR,6085,8523,15124,0.128,551
2020-07-12T14:49:16,42.805,6.029,CST-1368DR,6085,8521,15121,0.129,551
2020-07-12T14:52:18,42.805,6.029,CST-1368DR,6085,8522,15122,0.129,551
2020-07-12T14:55:19,42.805,6.029,CST-1368DR,6085,8519,15117,0.130,551
2020-07-12T14:58:21,42.805,6.029,CST-1368DR,6085,8522,15123,0.128,551
2020-07-12T15:01:23,42.805,6.029,CST-1368DR,6085,8522,15123,0.128,551
2020-07-12T15:04:24,42.805,6.029,CST-1368DR,6085,8522,15122,0.129,551
2020-07-12T15:07:26,42.805,6.029,CST-1368DR,6085,8521,15120,0.129,551
2020-07-12T15:10:28,42.805,6.029,CST-1368DR,6085,8522,15122,0.129,551
2020-07-12T15:13:30,42.805,6.029,CST-1368DR,6085,8522,15122,0.129,551
2020-07-12T15:16:31,42.805,6.029,CST-1368DR,6085,8522,15122,0.129,551
2020-07-12T15:19:33,42.805,6.029,CST-1368DR,6085,8522,15122,0.129,551
2020-07-12T15:22:35,42.805,6.029,CST-1368DR,6085,8521,15121,0.129,551
2020-07-12T15:25:36,42.805,6.029,CST-1368DR,6085,8523,15124,0.128,551
2020-07-12T15:28:38,42.805,6.029,CST-1368DR,6085,8523,15123,0.128,551
2020-07-12T15:31:40,42.805,6.029,CST-1368DR,6085,8523,15123,0.128,551
2020-07-12T15:34:42,42.805,6.029,CST-1368DR,6085,8522,15122,0.129,551
2020-07-12T15:37:43,42.805,6.029,CST-1368DR,6085,8523,15124,0.128,551
2020-07-12T15:40:45,42.805,6.029,CST-1368DR,6085,8522,15123,0.128,551
2020-07-12T15:43:47,42.805,6.029,CST-1368DR,6085,8522,15123,0.128,551
2020-07-12T15:46:48,42.805,6.029,CST-1368DR,6085,8523,15124,0.128,550
2020-07-12T15:49:50,42.805,6.029,CST-1368DR,6085,8523,15124,0.128,551
2020-07-12T15:52:52,42.805,6.029,CST-1368DR,6085,8523,15124,0.128,551
2020-07-12T15:55:53,42.805,6.029,CST-1368DR,6085,8522,15122,0.129,551
2020-07-12T15:58:55,42.805,6.029,CST-1368DR,6085,8522,15122,0.129,551
2020-07-12T16:01:57,42.805,6.029,CST-1368DR,6085,8523,15123,0.128,551
2020-07-12T16:04:58,42.805,6.029,CST-1368DR,6085,8520,15119,0.129,551
2020-07-12T16:08:00,42.805,6.029,CST-1368DR,6085,8522,15122,0.129,551
2020-07-12T16:11:02,42.805,6.029,CST-1368DR,6085,8523,15123,0.128,551
2020-07-12T16:14:03,42.805,6.029,CST-1368DR,6085,8523,15124,0.128,551
2020-07-12T16:17:05,42.805,6.029,CST-1368DR,6085,8523,15124,0.128,551
2020-07-12T16:20:07,42.805,6.029,CST-1368DR,6085,8521,15120,0.129,551
2020-07-12T16:23:09,42.805,6.029,CST-1368DR,6085,8521,15120,0.129,551
2020-07-12T16:26:10,42.805,6.029,CST-1368DR,6085,8522,15123,0.128,551
2020-07-12T16:29:12,42.805,6.029,CST-1368DR,6085,8522,15122,0.129,551
2020-07-12T16:32:14,42.805,6.029,CST-1368DR,6085,8522,15122,0.129,551
2020-07-12T16:35:15,42.805,6.029,CST-1368DR,6085,8522,15123,0.128,551
2020-07-12T16:38:17,42.805,6.029,CST-1368DR,6085,8522,15123,0.128,551
2020-07-12T16:41:19,42.805,6.029,CST-1368DR,6085,8522,15122,0.129,551
2020-07-12T16:44:20,42.805,6.029,CST-1368DR,6085,8522,15122,0.129,551
2020-07-12T16:47:22,42.805,6.029,CST-1368DR,6085,8522,15123,0.128,551
2020-07-12T16:50:24,42.805,6.029,CST-1368DR,6085,8523,15123,0.128,551
2020-07-12T16:53:25,42.805,6.029,CST-1368DR,6085,8520,15119,0.129,550